Regional Weather Roundup
Issued by NWS

Home | Current Version | Previous Version | Text Only | Print | Product List | Glossary On
Versions: 1 2 3 4 5 6 7 8 9 10 11 12 13 14 15 16 17 18 19 20 21 22 23 24 25 26 27 28 29 30 31 32 33 34 35 36 37 38 39 40 41 42 43 44 45 46 47 48 49 50
000
ASUS45 KBOI 131710
RWRID

IDAHO REGIONAL WEATHER ROUNDUP
NATIONAL WEATHER SERVICE BOISE ID
1000 AM MST SAT FEB 13 2016

NOTE: "FAIR" INDICATES FEW OR NO CLOUDS BELOW 12000 FEET
WITH NO SIGNIFICANT WEATHER AND/OR OBSTRUCTIONS TO VISIBILITY

IDZ012-014-131800-
SOUTHWEST IDAHO


CITY           SKY/WX    TMP DP  RH WIND       PRES   REMARKS
BOISE          SUNNY     34  33  96 CALM      30.34R FOG
CALDWELL       SUNNY     39  34  82 CALM      30.36R
MOUNTAIN HOME  SUNNY     39  34  81 W3        30.33S
$$

IDZ016-017-131800-
SOUTHCENTRAL IDAHO


CITY           SKY/WX    TMP DP  RH WIND       PRES   REMARKS
BURLEY         CLOUDY    36  32  85 SW12      30.27R WCI  28
JEROME         MOSUNNY   34  29  82 SW14      30.29R WCI  25
TWIN FALLS     CLOUDY    42  33  70 SW17G24   30.29R
$$

IDZ019>023-131800-
SOUTHEAST IDAHO


CITY           SKY/WX    TMP DP  RH WIND       PRES   REMARKS
IDAHO FALLS    CLOUDY    26  20  77 SW6       30.17R WCI  19
POCATELLO      PTSUNNY   40  29  64 SW25      30.22R WCI  29
REXBURG        SUNNY     26  22  84 SW7       30.13F WCI  18
$$

IDZ006-010-011-018-031-032-131800-
CENTRAL IDAHO MOUNTAINS


CITY           SKY/WX    TMP DP  RH WIND       PRES   REMARKS
MCCALL         CLOUDY    35  30  82 CALM      30.25R
HAILEY         SUNNY     32  27  80 E9        30.19F WCI  24
STANLEY          N/A     35  17  47 NW10G29   30.21R WCI  27
SALMON         CLOUDY    36  30  80 CALM      30.17R
CHALLIS        MOSUNNY   42  16  34 W12G23    30.13R
$$

IDZ002-004-006-007-026-131800-
NORTHERN IDAHO


CITY           SKY/WX    TMP DP  RH WIND       PRES   REMARKS
LEWISTON       SUNNY     49  34  56 CALM      30.27S
LOWELL           N/A     39  37  92 CALM      30.32R
COEUR D`ALENE  CLOUDY    41  34  75 SW14      30.20R
MULLAN PASS    SNOW      26  25  96 NW8       30.10R VSB 1/4 WCI  18
$$



USA.gov is the U.S. government's official web portal to all federal, state and local government web resources and services.